STARLINK-11549, 62832

Orbit data source: Space-Track

STARLINK-11549, 62832 is a payload satellite owned by SpaceX/Seattle (US) in LEO that was launched on Mon, 27 Jan 2025 UTC via an FALCON 9 launch vehicle from the Air Force Eastern Test Range (AFETR). Payload-class satellites include a variety of spacecraft equipped with specific instruments for various scientific and technological missions. These include communications satellites like Starlink; space stations such as the ISS; scientific satellites like the Hubble; Earth observation satellites from companies like Planet Labs, Umbra, and HawkEye 360; GPS; miniature CubeSats for education and research; and military/defense satellites.

Loading next visibility...
Identifier
62832, 2025-019D
Orbit
LEO
Country
Flag of USUS
Related business
Manufacturer
SpaceX/Seattle
Mission
Operational Commercial Communications
Bus & Motor
STARLINK V2MD, Unknown motor
Mass
960 kg wet, ~910 kg dry
Launch date (UTC)
2025-01-27 (1 year ago)
Launch vehicle
FALCON 9
Launch site
Air Force Eastern Test Range (AFETR)
Object type
Payload
Rocket body
Debris
Shape & HBR
Box + 2 Pan, 18.1 m
Radar Cross Section
36.964 m², Large (>1 m²)

Expand to show TLE details & history
Last TLE update: 20 hours ago

TLE from 20 hours ago
0 STARLINK-11549
1 62832U 25019D   26033.81744428  .00287875  00000-0  21689-2 0  9995
2 62832  42.9991 156.4142 0002411  26.9946 333.1047 15.70853988 58394
Epoch: 2026-02-02T19:37Z
TLE epoch observation values (Epoch: 2026-02-02T19:37:07.185Z)
Latitude
-0.00001°
Longitude
89.12697°
Altitude
354.778 km
Speed
7.699 km/s
True Right ascension
10h 25m 39s
True Declination
0° 00' 00"
Sunlit
Object was in full shadow at epoch
Visualization orbit readout
Latitude
Unknown
Longitude
Unknown
Altitude
Unknown
Speed
Unknown
Apparent Right ascension
Unknown
Apparent Declination
Unknown
Sunlit
N/A
Visualization observer readout
Local Sidereal Time
17:19:25
Azimuth
Unknown
Elevation
Unknown
Doppler factor
Unknown
Orbital elements
Apogee altitude
360.061 km
Perigee altitude
356.813 km
Semi-major axis
6,736.574 km
Eccentricity
0.00024
Inclination
42.9991°
RAAN
156.4142°
Arg. of periapsis
26.9946°
True anomaly
333.0922°
Mean anomaly
333.1047°
Eccentric anomaly
333.09845°
Mean motion
3.92541 °/min
Orbital period
91.71 mins
BSTAR
0.0021689
Loading maneuver chart data...
Computing Atmospheric mass density...
Loading historical data...
Loading historical data...
Loading historical data...
Loading historical data...
Loading historical data...
Loading historical data...
Loading historical data...

Documentation

Showing up to 5 results
|